Prague, Czech Republic

2:25 PM CET on February 21, 2017 (GMT +0100)
Ruzyne

Weather History for LKPR - March, 2013

Change the Weather History Date:

Wednesday, March 27, 2013

  Actual Average Record
Temperature  
Mean Temperature 25 °F -  
Max Temperature 27 °F 55 °F 68 °F (2006)
Min Temperature 23 °F 35 °F 23 °F (2013)
Degree Days  
Heating Degree Days 40    
Moisture  
Dew Point 20 °F    
Average Humidity 81    
Maximum Humidity 93    
Minimum Humidity 40    
Precipitation  
Precipitation 0.00 in 0.05 in - ()
Sea Level Pressure  
Sea Level Pressure 29.85 in    
Wind  
Wind Speed 10 mph ()    
Max Wind Speed 16 mph    
Max Gust Speed -    
Visibility 3.7 miles    
Events Snow    
Averages and records for this station are not official NWS values.
T = Trace of Precipitation, MM = Missing Value Source: Averaged Metar Reports

Daily Weather History Graph

Daily Weather History Graph

Search for Another Location

Airport or City:

Trip Planner

Search our weather history database for the weather conditions in past years. The results will help you decide how hot, cold, wet, or windy it might be!

Date:

Astronomy

Mar. 27, 2013 Rise Set
Actual Time 5:50 AM CET 6:27 PM CET
Civil Twilight 5:17 AM CET 6:59 PM CET
Nautical Twilight 4:39 AM CET 7:38 PM CET
Astronomical Twilight 3:58 AM CET 8:19 PM CET
Moon 6:57 PM CET (3/27) 5:28 AM CET (3/27)
Length of Visible Light 13h 41m
Length of Day
12h 36m
Full, 100% of the Moon is Illuminated
Mar 27
Full
Apr 3
Last Quarter
Apr 10
New
Apr 18
First Quarter
Apr 25
Full

Hourly Weather History & Observations

Time (CET) Temp. Windchill Dew Point Humidity Pressure Visibility Wind Dir Wind Speed Gust Speed Precip Events Conditions
12:00 AM 24.8 °F 11.9 °F 12.2 °F 59% 29.86 in 6.2 mi ENE 16.1 mph - N/A   Scattered Clouds
12:30 AM 24.8 °F 13.4 °F 12.2 °F 59% 29.86 in 6.2 mi ENE 12.7 mph - N/A   Scattered Clouds
1:00 AM 25 °F - 11 °F 40% 29.94 in 19 mi NE 8.9 mph - -   Partly Cloudy
1:00 AM 24.8 °F 16.9 °F 12.2 °F 59% 29.86 in 6.2 mi NNE 6.9 mph - N/A   Partly Cloudy
1:30 AM 24.8 °F 12.9 °F 12.2 °F 59% 29.86 in - NE 13.8 mph - N/A   Clear
2:00 AM 24.8 °F 16.9 °F 12.2 °F 59% 29.86 in 6.2 mi NNE 6.9 mph - N/A   Mostly Cloudy
2:30 AM 24.8 °F 16.9 °F 14.0 °F 64% 29.86 in 6.2 mi NNE 6.9 mph - N/A   Scattered Clouds
3:00 AM 23.0 °F 13.9 °F 14.0 °F 68% 29.83 in 6.2 mi NNE 8.1 mph - N/A   Mostly Cloudy
3:30 AM 23.0 °F 10.6 °F 14.0 °F 68% 29.83 in 6.2 mi ENE 13.8 mph - N/A   Mostly Cloudy
4:00 AM 23.0 °F 11.7 °F 14.0 °F 68% 29.83 in 6.2 mi ENE 11.5 mph - N/A   Mostly Cloudy
4:30 AM 23.0 °F 11.7 °F 14.0 °F 68% 29.83 in 6.2 mi ENE 11.5 mph - N/A   Mostly Cloudy
5:00 AM 23.0 °F 11.7 °F 14.0 °F 68% 29.83 in 6.2 mi ENE 11.5 mph - N/A   Mostly Cloudy
5:30 AM 24.8 °F 15.3 °F 12.2 °F 59% 29.83 in 6.2 mi ENE 9.2 mph - N/A   Mostly Cloudy
6:00 AM 23.0 °F 12.4 °F 14.0 °F 68% 29.83 in - ENE 10.4 mph - N/A   Clear
6:30 AM 23.0 °F 11.7 °F 14.0 °F 68% 29.83 in - ENE 11.5 mph - N/A   Clear
7:00 AM 23 °F - 15 °F 62% 29.93 in 7 mi ENE 11.2 mph - - Snow Light Snow
7:00 AM 23.0 °F 11.1 °F 15.8 °F 74% 29.83 in 6.2 mi ENE 12.7 mph - N/A Snow Light Snow
7:30 AM 23.0 °F 12.4 °F 15.8 °F 74% 29.83 in 6.2 mi ENE 10.4 mph - N/A Snow Light Snow
8:00 AM 23.0 °F 11.1 °F 15.8 °F 74% 29.83 in 5.0 mi ENE 12.7 mph - N/A Snow Light Snow
8:06 AM 23.0 °F 11.1 °F 15.8 °F 74% 29.83 in 3.1 mi East 12.7 mph - N/A Snow Light Snow
8:14 AM 23.0 °F 11.1 °F 17.6 °F 80% 29.83 in 1.9 mi ENE 12.7 mph - N/A Snow Light Snow
8:30 AM 23.0 °F 11.7 °F 19.4 °F 86% 29.83 in 1.4 mi ENE 11.5 mph - N/A Snow Snow
8:39 AM 23.0 °F 11.7 °F 19.4 °F 86% 29.83 in 1.6 mi ENE 11.5 mph - N/A Snow Snow
8:53 AM 23.0 °F 12.4 °F 19.4 °F 86% 29.83 in 1.9 mi ENE 10.4 mph - N/A Snow Snow
9:00 AM 24.8 °F 14.6 °F 21.2 °F 86% 29.83 in 1.9 mi ENE 10.4 mph - N/A Snow Snow
9:09 AM 24.8 °F 14.6 °F 21.2 °F 86% 29.83 in 3.1 mi ENE 10.4 mph - N/A Snow Light Snow
9:17 AM 24.8 °F 14.6 °F 21.2 °F 86% 29.83 in 1.9 mi East 10.4 mph - N/A Snow Snow
9:30 AM 24.8 °F 14.6 °F 19.4 °F 80% 29.86 in 1.9 mi East 10.4 mph - N/A Snow Snow
9:42 AM 24.8 °F 14.6 °F 21.2 °F 86% 29.86 in 3.7 mi East 10.4 mph - N/A Snow Light Snow
10:00 AM 24.8 °F 14.6 °F 21.2 °F 86% 29.83 in 3.7 mi ENE 10.4 mph - N/A Snow Light Snow
10:20 AM 24.8 °F 15.3 °F 19.4 °F 80% 29.86 in - East 9.2 mph - N/A Snow Light Snow
10:22 AM 24.8 °F 14.6 °F 19.4 °F 80% 29.86 in 3.1 mi East 10.4 mph - N/A Snow Light Snow
10:30 AM 24.8 °F 14.6 °F 21.2 °F 86% 29.86 in 2.8 mi East 10.4 mph - N/A Snow Light Snow
11:00 AM 24.8 °F 14.6 °F 21.2 °F 86% 29.83 in 2.2 mi East 10.4 mph - N/A Snow Light Snow
11:30 AM 26.6 °F 16.8 °F 21.2 °F 80% 29.86 in 3.1 mi East 10.4 mph - N/A Snow Light Snow
12:00 PM 26.6 °F 17.5 °F 21.2 °F 80% 29.86 in 2.5 mi East 9.2 mph - N/A Snow Light Snow
12:30 PM 26.6 °F 17.5 °F 21.2 °F 80% 29.83 in 1.9 mi East 9.2 mph - N/A Snow Light Snow
1:00 PM 26 °F - 23 °F 83% 29.93 in 2 mi East 6.7 mph - - Snow Light Snow
1:00 PM 26.6 °F 18.2 °F 23.0 °F 86% 29.86 in 2.2 mi East 8.1 mph - N/A Snow Light Snow
1:30 PM 26.6 °F 18.2 °F 21.2 °F 80% 29.83 in 1.9 mi East 8.1 mph - N/A Snow Light Snow
1:52 PM 26.6 °F 19.1 °F 23.0 °F 86% 29.83 in 1.2 mi East 6.9 mph - N/A Snow Snow
2:00 PM 26.6 °F 19.1 °F 23.0 °F 86% 29.83 in 1.9 mi East 6.9 mph - N/A Snow Light Snow
2:30 PM 26.6 °F 16.8 °F 23.0 °F 86% 29.86 in 2.5 mi East 10.4 mph - N/A Snow Light Snow
3:00 PM 26.6 °F 16.8 °F 23.0 °F 86% 29.86 in 2.5 mi East 10.4 mph - N/A Snow Light Snow
3:21 PM 26.6 °F 16.8 °F 23.0 °F 86% 29.86 in 1.2 mi East 10.4 mph - N/A Snow Light Snow
3:30 PM 26.6 °F 16.8 °F 24.8 °F 93% 29.86 in 1.2 mi East 10.4 mph - N/A Snow Light Snow
3:45 PM 26.6 °F 16.2 °F 24.8 °F 93% 29.86 in 2.2 mi East 11.5 mph - N/A Snow Light Snow
3:52 PM 26.6 °F 16.8 °F 23.0 °F 86% 29.86 in 3.1 mi East 10.4 mph - N/A Snow Light Snow
4:00 PM 26.6 °F 16.8 °F 24.8 °F 93% 29.86 in 3.1 mi East 10.4 mph - N/A Snow Light Snow
4:15 PM 28.4 °F 19.1 °F 24.8 °F 86% 29.86 in 1.6 mi East 10.4 mph - N/A Snow Light Snow
4:30 PM 26.6 °F 17.5 °F 24.8 °F 93% 29.86 in 1.9 mi East 9.2 mph - N/A Snow Light Snow
5:00 PM 26.6 °F 17.5 °F 24.8 °F 93% 29.86 in 1.9 mi ENE 9.2 mph - N/A Snow Light Snow
5:17 PM 26.6 °F 17.5 °F 24.8 °F 93% 29.86 in 3.1 mi ENE 9.2 mph - N/A Snow Light Snow
5:30 PM 26.6 °F 16.8 °F 24.8 °F 93% 29.86 in 3.1 mi ENE 10.4 mph - N/A Snow Light Snow
6:00 PM 26.6 °F 17.5 °F 24.8 °F 93% 29.86 in 3.1 mi ENE 9.2 mph - N/A   Overcast
6:30 PM 26.6 °F 17.5 °F 24.8 °F 93% 29.86 in 3.1 mi ENE 9.2 mph - N/A   Mostly Cloudy
7:00 PM 27 °F - 24 °F 85% 29.95 in 4 mi ENE 8.9 mph - -   Mist
7:00 PM 26.6 °F 18.2 °F 24.8 °F 93% 29.86 in 3.7 mi NE 8.1 mph - N/A   Mostly Cloudy
7:30 PM 26.6 °F 19.1 °F 24.8 °F 93% 29.86 in 3.7 mi NE 6.9 mph - N/A   Overcast
8:00 PM 26.6 °F 20.0 °F 24.8 °F 93% 29.86 in 4.3 mi ENE 5.8 mph - N/A   Overcast
8:30 PM 26.6 °F 20.0 °F 24.8 °F 93% 29.86 in 3.7 mi ENE 5.8 mph - N/A   Overcast
9:00 PM 26.6 °F 21.2 °F 24.8 °F 93% 29.86 in 3.7 mi NE 4.6 mph - N/A Snow Light Snow
9:30 PM 26.6 °F 21.2 °F 24.8 °F 93% 29.86 in 2.8 mi NNE 4.6 mph - N/A Snow Light Snow
10:00 PM 26.6 °F 20.0 °F 24.8 °F 93% 29.86 in 2.8 mi NE 5.8 mph - N/A Snow Light Snow
10:30 PM 26.6 °F 20.0 °F 24.8 °F 93% 29.86 in 3.1 mi East 5.8 mph - N/A Snow Light Snow
11:00 PM 24.8 °F 19.1 °F 23.0 °F 93% 29.86 in 3.7 mi East 4.6 mph - N/A Snow Light Snow
11:30 PM 26.6 °F - 24.8 °F 93% 29.86 in 2.8 mi East 2.3 mph - N/A Snow Light Snow
11:51 PM 26.6 °F - 24.8 °F 93% 29.86 in 3.7 mi NE 2.3 mph - N/A   Mostly Cloudy